Grandeur Of The Seas — C6SE3 — position and weather

sailwx.info

Track history (hours):
 
Tides and Currents Weather Stations Pressure Air Temp Water Temp Dewpoint Dewpoint Depression Visibility Wind Speed Wind Dir Waves Ship Positions

Grandeur Of The Seas

Operator: Royal Caribbean Cruises Ltd

Last reported at 2017-Jun-25 05:08 UTC. Time now 2017-Jun-26 12:05 UTC.
Position N 36°52' W 075°53'.

Type: Passenger vessel. MMSI: 311315000.

Date/timePositionNaut miles runAvg speedWind from/ knotsBaromVisibWave heightAir tempDewpointWater temp
2017-Jun-25 05:08N 36°52' W 075°53'319.6
2017-Jun-25 04:58N 36°54' W 075°56'714.1
2017-Jun-25 04:30N 36°59' W 076°01'6517.4
2017-Jun-25 00:45N 38°04' W 076°13'521.2
2017-Jun-25 00:30N 38°09' W 076°13'4320.5
2017-Jun-24 22:24N 38°52' W 076°24'819.4
2017-Jun-24 22:00N 38°60' W 076°23'714.7
2017-Jun-24 21:30N 39°07' W 076°24'713.1
2017-Jun-24 21:00N 39°12' W 076°29'510.6
2017-Jun-24 20:31N 39°15' W 076°34'1 2.3
2017-Jun-24 19:55N 39°16' W 076°36'0 0.0
2017-Jun-24 19:25N 39°16' W 076°36'0 0.0
2017-Jun-24 18:58N 39°16' W 076°36'0 0.0
2017-Jun-24 18:25N 39°16' W 076°36'0 0.0
2017-Jun-24 17:58N 39°16' W 076°36'0 0.0
2017-Jun-24 17:28N 39°16' W 076°36'0 0.0
2017-Jun-24 16:58N 39°16' W 076°36'0 0.0
2017-Jun-24 16:22N 39°16' W 076°36'0 0.0
2017-Jun-24 15:46N 39°16' W 076°36'0 0.0
2017-Jun-24 15:28N 39°16' W 076°36'0 0.0
2017-Jun-24 14:58N 39°16' W 076°36'0 0.0
2017-Jun-24 13:55N 39°16' W 076°36'0 0.0
2017-Jun-24 13:28N 39°16' W 076°36'0 0.0
2017-Jun-24 12:58N 39°16' W 076°36'0 0.0
2017-Jun-24 12:28N 39°16' W 076°36'0 0.0
2017-Jun-24 11:58N 39°16' W 076°36'0 0.0
2017-Jun-24 11:28N 39°16' W 076°36'0 0.0
2017-Jun-24 10:58N 39°16' W 076°36'1 2.6
2017-Jun-24 10:30N 39°15' W 076°35'3 6.9
2017-Jun-24 10:00N 39°13' W 076°31'611.1
2017-Jun-24 09:30N 39°10' W 076°25'713.0
2017-Jun-24 09:00N 39°03' W 076°23'714.4
2017-Jun-24 08:31N 38°56' W 076°23'816.5
2017-Jun-24 08:00N 38°48' W 076°25'10616.4
2017-Jun-24 01:34N 37°03' W 076°05'119.4
2017-Jun-24 01:31N 37°03' W 076°04'916.5
2017-Jun-24 00:57N 36°56' W 075°56'714.4
2017-Jun-24 00:30N 36°52' W 075°50'  
2017-Jun-16 05:22N 36°52' W 075°53'618.0
2017-Jun-16 05:00N 36°56' W 075°59'1115.4
2017-Jun-16 04:17N 37°06' W 076°07'518.7
2017-Jun-16 04:00N 37°10' W 076°09'1018.9
2017-Jun-16 03:29N 37°20' W 076°05'1317.7
2017-Jun-16 02:47N 37°32' W 076°02'517.3
2017-Jun-16 02:30N 37°36' W 076°05'917.9
2017-Jun-16 02:00N 37°44' W 076°11'1120.7
2017-Jun-16 01:29N 37°55' W 076°10'1020.6
2017-Jun-16 01:00N 38°04' W 076°13'1020.5
2017-Jun-16 00:30N 38°14' W 076°16'1120.1
2017-Jun-15 23:58N 38°24' W 076°21'2419.3
2017-Jun-15 22:44N 38°48' W 076°25'520.1
2017-Jun-15 22:30N 38°52' W 076°24'1616.6
2017-Jun-15 21:34N 39°08' W 076°24'114.7
2017-Jun-15 21:30N 39°09' W 076°24'612.5
2017-Jun-15 21:01N 39°12' W 076°31'5 9.0
2017-Jun-15 20:30N 39°15' W 076°35'1 1.1
2017-Jun-15 19:53N 39°16' W 076°36'0 0.0
2017-Jun-15 19:29N 39°16' W 076°36'0 0.0
2017-Jun-15 18:56N 39°16' W 076°36'0 0.0
2017-Jun-15 18:26N 39°16' W 076°36'0 0.0
2017-Jun-15 17:59N 39°16' W 076°36'0 0.0
2017-Jun-15 17:29N 39°16' W 076°36'0 0.0
2017-Jun-15 16:56N 39°16' W 076°36'0 0.0
2017-Jun-15 16:29N 39°16' W 076°36'0 0.0
2017-Jun-15 15:26N 39°16' W 076°36'0 0.0
2017-Jun-15 14:56N 39°16' W 076°36'0 0.0
2017-Jun-15 14:14N 39°16' W 076°36'0 0.0
2017-Jun-15 11:35N 39°16' W 076°36'0 0.0
2017-Jun-15 11:17N 39°16' W 076°36'0 0.0
2017-Jun-15 10:59N 39°16' W 076°36'2 3.4
2017-Jun-15 10:31N 39°15' W 076°34'5 9.7
2017-Jun-15 10:00N 39°12' W 076°29'611.4
2017-Jun-15 09:31N 39°08' W 076°24'713.3
2017-Jun-15 09:00N 39°02' W 076°23'714.6
2017-Jun-15 08:31N 38°54' W 076°24'816.8
2017-Jun-15 08:01N 38°46' W 076°26'918.5
2017-Jun-15 07:31N 38°37' W 076°25'1020.8
2017-Jun-15 07:01N 38°27' W 076°22'1721.7
2017-Jun-15 06:15N 38°11' W 076°14'522.1
2017-Jun-15 06:00N 38°06' W 076°13'  
Track history (hours):
 
Tides and Currents Weather Stations Pressure Air Temp Water Temp Dewpoint Dewpoint Depression Visibility Wind Speed Wind Dir Waves Ship Positions

Grandeur Of The Seas

Operator: Royal Caribbean Cruises Ltd

Last reported at 2017-Jun-25 05:08 UTC. Time now 2017-Jun-26 12:05 UTC.
Position N 36°52' W 075°53'.

Type: Passenger vessel. MMSI: 311315000.

Date/timePositionNaut miles runAvg speedWind from/ knotsBaromVisibWave heightAir tempDewpointWater temp
2017-Jun-25 05:08N 36°52' W 075°53'319.6
2017-Jun-25 04:58N 36°54' W 075°56'714.1
2017-Jun-25 04:30N 36°59' W 076°01'6517.4
2017-Jun-25 00:45N 38°04' W 076°13'521.2
2017-Jun-25 00:30N 38°09' W 076°13'4320.5
2017-Jun-24 22:24N 38°52' W 076°24'819.4
2017-Jun-24 22:00N 38°60' W 076°23'714.7
2017-Jun-24 21:30N 39°07' W 076°24'713.1
2017-Jun-24 21:00N 39°12' W 076°29'510.6
2017-Jun-24 20:31N 39°15' W 076°34'1 2.3
2017-Jun-24 19:55N 39°16' W 076°36'0 0.0
2017-Jun-24 19:25N 39°16' W 076°36'0 0.0
2017-Jun-24 18:58N 39°16' W 076°36'0 0.0
2017-Jun-24 18:25N 39°16' W 076°36'0 0.0
2017-Jun-24 17:58N 39°16' W 076°36'0 0.0
2017-Jun-24 17:28N 39°16' W 076°36'0 0.0
2017-Jun-24 16:58N 39°16' W 076°36'0 0.0
2017-Jun-24 16:22N 39°16' W 076°36'0 0.0
2017-Jun-24 15:46N 39°16' W 076°36'0 0.0
2017-Jun-24 15:28N 39°16' W 076°36'0 0.0
2017-Jun-24 14:58N 39°16' W 076°36'0 0.0
2017-Jun-24 13:55N 39°16' W 076°36'0 0.0
2017-Jun-24 13:28N 39°16' W 076°36'0 0.0
2017-Jun-24 12:58N 39°16' W 076°36'0 0.0
2017-Jun-24 12:28N 39°16' W 076°36'0 0.0
2017-Jun-24 11:58N 39°16' W 076°36'0 0.0
2017-Jun-24 11:28N 39°16' W 076°36'0 0.0
2017-Jun-24 10:58N 39°16' W 076°36'1 2.6
2017-Jun-24 10:30N 39°15' W 076°35'3 6.9
2017-Jun-24 10:00N 39°13' W 076°31'611.1
2017-Jun-24 09:30N 39°10' W 076°25'713.0
2017-Jun-24 09:00N 39°03' W 076°23'714.4
2017-Jun-24 08:31N 38°56' W 076°23'816.5
2017-Jun-24 08:00N 38°48' W 076°25'10616.4
2017-Jun-24 01:34N 37°03' W 076°05'119.4
2017-Jun-24 01:31N 37°03' W 076°04'916.5
2017-Jun-24 00:57N 36°56' W 075°56'714.4
2017-Jun-24 00:30N 36°52' W 075°50'  
2017-Jun-16 05:22N 36°52' W 075°53'618.0
2017-Jun-16 05:00N 36°56' W 075°59'1115.4
2017-Jun-16 04:17N 37°06' W 076°07'518.7
2017-Jun-16 04:00N 37°10' W 076°09'1018.9
2017-Jun-16 03:29N 37°20' W 076°05'1317.7
2017-Jun-16 02:47N 37°32' W 076°02'517.3
2017-Jun-16 02:30N 37°36' W 076°05'917.9
2017-Jun-16 02:00N 37°44' W 076°11'1120.7
2017-Jun-16 01:29N 37°55' W 076°10'1020.6
2017-Jun-16 01:00N 38°04' W 076°13'1020.5
2017-Jun-16 00:30N 38°14' W 076°16'1120.1
2017-Jun-15 23:58N 38°24' W 076°21'2419.3
2017-Jun-15 22:44N 38°48' W 076°25'520.1
2017-Jun-15 22:30N 38°52' W 076°24'1616.6
2017-Jun-15 21:34N 39°08' W 076°24'114.7
2017-Jun-15 21:30N 39°09' W 076°24'612.5
2017-Jun-15 21:01N 39°12' W 076°31'5 9.0
2017-Jun-15 20:30N 39°15' W 076°35'1 1.1
2017-Jun-15 19:53N 39°16' W 076°36'0 0.0
2017-Jun-15 19:29N 39°16' W 076°36'0 0.0
2017-Jun-15 18:56N 39°16' W 076°36'0 0.0
2017-Jun-15 18:26N 39°16' W 076°36'0 0.0
2017-Jun-15 17:59N 39°16' W 076°36'0 0.0
2017-Jun-15 17:29N 39°16' W 076°36'0 0.0
2017-Jun-15 16:56N 39°16' W 076°36'0 0.0
2017-Jun-15 16:29N 39°16' W 076°36'0 0.0
2017-Jun-15 15:26N 39°16' W 076°36'0 0.0
2017-Jun-15 14:56N 39°16' W 076°36'0 0.0
2017-Jun-15 14:14N 39°16' W 076°36'0 0.0
2017-Jun-15 11:35N 39°16' W 076°36'0 0.0
2017-Jun-15 11:17N 39°16' W 076°36'0 0.0
2017-Jun-15 10:59N 39°16' W 076°36'2 3.4
2017-Jun-15 10:31N 39°15' W 076°34'5 9.7
2017-Jun-15 10:00N 39°12' W 076°29'611.4
2017-Jun-15 09:31N 39°08' W 076°24'713.3
2017-Jun-15 09:00N 39°02' W 076°23'714.6
2017-Jun-15 08:31N 38°54' W 076°24'816.8
2017-Jun-15 08:01N 38°46' W 076°26'918.5
2017-Jun-15 07:31N 38°37' W 076°25'1020.8
2017-Jun-15 07:01N 38°27' W 076°22'1721.7
2017-Jun-15 06:15N 38°11' W 076°14'522.1
2017-Jun-15 06:00N 38°06' W 076°13'  

Dump ship's entire track history